COSMOS 1275 DEB, 42171

Orbit data source: Space-Track

COSMOS 1275 DEB, 42171 is space debris in LEO originally from a launch on Thu, 04 Jun 1981 UTC launched from the Plesetsk Missile And Space Complex (PKMTR). Debris objects in space refer to the collection of defunct objects orbiting the Earth. Examples of debris include non-operational satellites, rocket bodies, and fragments generated from explosions, collisions, or faulty payload assembly.

Loading next visibility...
Identifier
42171, 1981-053SK
Orbit
LEO
Country
Flag of CISCIS
Related business
Manufacturer
Unknown
Mission
Spacecraft
Bus & Motor
Unknown
Mass
Unknown
Launch date (UTC)
1981-06-04 (44 years ago)
Launch vehicle
Unknown
Launch site
Plesetsk Missile And Space Complex (PKMTR)
Object type
Payload
Rocket body
Debris
Shape & HBR
Unknown shape, 0.1 m
Radar Cross Section
Small (<0.1 m²)

Expand to show TLE details & history
Last TLE update: 2 days ago

TLE from 2 days ago
0 COSMOS 1275 DEB
1 42171U 81053SK  25316.48760486  .00014709  00000-0  73839-2 0  9995
2 42171  83.0803  36.9962 0038345 287.9417  71.7584 14.16045704 74651
Epoch: 2025-11-12T11:42Z
TLE epoch observation values (Epoch: 2025-11-12T11:42:09.059Z)
Latitude
-0.00001°
Longitude
169.59936°
Altitude
833.149 km
Speed
7.441 km/s
True Right ascension
02h 27m 59s
True Declination
0° 00' 00"
Sunlit
Object was in full shadow at epoch
Visualization orbit readout
Latitude
Unknown
Longitude
Unknown
Altitude
Unknown
Speed
Unknown
Apparent Right ascension
Unknown
Apparent Declination
Unknown
Sunlit
N/A
Visualization observer readout
Local Sidereal Time
20:02:53
Azimuth
Unknown
Elevation
Unknown
Doppler factor
Unknown
Orbital elements
Apogee altitude
863.506 km
Perigee altitude
808.182 km
Semi-major axis
7,213.981 km
Eccentricity
0.00383
Inclination
83.0803°
RAAN
36.9962°
Arg. of periapsis
287.9417°
True anomaly
72.17634°
Mean anomaly
71.7584°
Eccentric anomaly
71.96731°
Mean motion
3.54226 °/min
Orbital period
101.63 mins
BSTAR
0.0073839
Loading maneuver chart data...
Computing Atmospheric mass density...

Documentation

Showing up to 5 results
|